Menu Close Menu
Station Historical Data
Daily Summary for September 5, 2017 Units:  Metric    English   Both
« Previous Day
Next Day »
Daily Weekly Monthly Yearly Custom
  High: Low: Average:
Temperature: 30.6 °C 18.7 °C 23.3 °C
Dew Point: 21.5 °C 17.2 °C 19.2 °C
Humidity: 94% 55% 79%
Wind Speed: 3.2km/h 0km/h 0km/h
Wind Gust: 8km/h - -
Wind- - WNW
Pressure: 1016.5 hPa 1010.4 hPa -
Precipitation: 17.53 mm    
Historical Graphs
 
 
Tabular Data for September 5, 2017
Time Temperature Dew Point Pressure Wind Wind Speed Wind Gust Humidity Rainfall Rate (Hourly) solar Conditions
00:00 21.3 °C 18.4 °C 1016.1 hPa Calm     84% 0 mm WeatherDisplay:10.37 W/m2 CLR
00:10 21.2 °C 18.4 °C 1016.5 hPa Calm     84% 0 mm WeatherDisplay:10.37 W/m2 CLR
00:15 21.2 °C 18.4 °C 1016.5 hPa Calm     84% 0 mm WeatherDisplay:10.37 W/m2 CLR
00:20 21.2 °C 18.3 °C 1016.5 hPa Calm     84% 0 mm WeatherDisplay:10.37 W/m2 CLR
00:25 21.1 °C 18.3 °C 1016.5 hPa Calm     84% 0 mm WeatherDisplay:10.37 W/m2 CLR
00:30 21.1 °C 18.3 °C 1016.5 hPa Calm     84% 0 mm WeatherDisplay:10.37 W/m2 CLR
00:35 21.1 °C 18.5 °C 1016.5 hPa Calm     85% 0 mm WeatherDisplay:10.37 W/m2 CLR
00:40 21.1 °C 18.4 °C 1016.5 hPa Calm     85% 0 mm WeatherDisplay:10.37 W/m2 CLR
00:45 21 °C 18.4 °C 1016.5 hPa Calm     85% 0 mm WeatherDisplay:10.37 W/m2 CLR
00:50 21 °C 18.4 °C 1016.5 hPa Calm     85% 0 mm WeatherDisplay:10.37 W/m2 CLR
00:55 20.9 °C 18.3 °C 1016.5 hPa Calm     85% 0 mm WeatherDisplay:10.37 W/m2 CLR
01:00 20.9 °C 18.3 °C 1016.1 hPa Calm     85% 0 mm WeatherDisplay:10.37 W/m2 CLR
01:10 20.9 °C 18.3 °C 1016.5 hPa Calm     85% 0 mm WeatherDisplay:10.37 W/m2 CLR
01:15 20.9 °C 18.3 °C 1016.1 hPa Calm     85% 0 mm WeatherDisplay:10.37 W/m2 CLR
01:20 20.9 °C 18.4 °C 1016.1 hPa Calm     86% 0 mm WeatherDisplay:10.37 W/m2 CLR
01:25 20.9 °C 18.4 °C 1016.1 hPa Calm     86% 0 mm WeatherDisplay:10.37 W/m2 CLR
01:35 20.8 °C 18.3 °C 1016.1 hPa Calm     86% 0 mm WeatherDisplay:10.37 W/m2 CLR
01:40 20.8 °C 18.3 °C 1016.1 hPa Calm     86% 0 mm WeatherDisplay:10.37 W/m2 CLR
01:45 20.7 °C 18.3 °C 1016.1 hPa Calm     86% 0 mm WeatherDisplay:10.37 W/m2 CLR
01:50 20.7 °C 18.3 °C 1016.1 hPa Calm     86% 0 mm WeatherDisplay:10.37 W/m2 CLR
01:55 20.7 °C 18.2 °C 1016.1 hPa Calm     86% 0 mm WeatherDisplay:10.37 W/m2 CLR
02:00 20.6 °C 18.2 °C 1016.1 hPa Calm     86% 0 mm WeatherDisplay:10.37 W/m2 CLR
02:05 20.6 °C 18.4 °C 1016.1 hPa Calm     87% 0 mm WeatherDisplay:10.37 W/m2 CLR
02:10 20.6 °C 18.4 °C 1016.1 hPa Calm     87% 0 mm WeatherDisplay:10.37 W/m2 CLR
02:15 20.6 °C 18.3 °C 1016.1 hPa Calm     87% 0 mm WeatherDisplay:10.37 W/m2 CLR
02:20 20.6 °C 18.3 °C 1015.8 hPa Calm     87% 0 mm WeatherDisplay:10.37 W/m2 CLR
02:25 20.6 °C 18.3 °C 1015.8 hPa Calm     87% 0 mm WeatherDisplay:10.37 W/m2 CLR
02:30 20.5 °C 18.3 °C 1015.8 hPa Calm     87% 0 mm WeatherDisplay:10.37 W/m2 CLR
02:35 20.5 °C 18.3 °C 1016.1 hPa Calm     87% 0 mm WeatherDisplay:10.37 W/m2 CLR
02:40 20.4 °C 18.2 °C 1016.1 hPa Calm     87% 0 mm WeatherDisplay:10.37 W/m2 CLR
02:45 20.4 °C 18.2 °C 1015.8 hPa Calm     87% 0 mm WeatherDisplay:10.37 W/m2 CLR
02:50 20.4 °C 18.2 °C 1015.8 hPa Calm     87% 0 mm WeatherDisplay:10.37 W/m2 CLR
02:55 20.4 °C 18.2 °C 1015.8 hPa Calm     87% 0 mm WeatherDisplay:10.37 W/m2 CLR
03:00 20.4 °C 18.2 °C 1015.8 hPa Calm     87% 0 mm WeatherDisplay:10.37 W/m2 CLR
03:05 20.4 °C 18.3 °C 1016.1 hPa Calm     88% 0 mm WeatherDisplay:10.37 W/m2 CLR
03:10 20.3 °C 18.3 °C 1016.1 hPa Calm     88% 0 mm WeatherDisplay:10.37 W/m2 CLR
03:15 20.4 °C 18.3 °C 1016.1 hPa Calm     88% 0 mm WeatherDisplay:10.37 W/m2 CLR
03:20 20.3 °C 18.3 °C 1015.8 hPa Calm     88% 0 mm WeatherDisplay:10.37 W/m2 SCT
03:25 20.4 °C 18.3 °C 1015.8 hPa Calm     88% 0 mm WeatherDisplay:10.37 W/m2 SCT
03:30 20.4 °C 18.3 °C 1015.8 hPa Calm     88% 0 mm WeatherDisplay:10.37 W/m2 SCT
03:35 20.4 °C 18.3 °C 1015.8 hPa Calm     88% 0 mm WeatherDisplay:10.37 W/m2 SCT
03:40 20.4 °C 18.3 °C 1016.1 hPa Calm     88% 0 mm WeatherDisplay:10.37 W/m2 SCT
03:45 20.3 °C 18.3 °C 1015.8 hPa Calm     88% 0 mm WeatherDisplay:10.37 W/m2 SCT
03:50 20.3 °C 18.3 °C 1015.8 hPa Calm     88% 0 mm WeatherDisplay:10.37 W/m2 SCT
03:55 20.3 °C 18.3 °C 1015.8 hPa Calm     88% 0 mm WeatherDisplay:10.37 W/m2 SCT
04:00 20.3 °C 18.3 °C 1015.8 hPa Calm     88% 0 mm WeatherDisplay:10.37 W/m2 SCT
04:10 20.3 °C 18.2 °C 1015.8 hPa Calm     88% 0 mm WeatherDisplay:10.37 W/m2 SCT
04:15 20.2 °C 18.1 °C 1015.8 hPa Calm     88% 0 mm WeatherDisplay:10.37 W/m2 SCT
04:25 20.1 °C 17.8 °C 1015.8 hPa Calm     87% 0 mm WeatherDisplay:10.37 W/m2 OVC
04:30 20 °C 17.9 °C 1015.8 hPa Calm     88% 0 mm WeatherDisplay:10.37 W/m2 OVC
04:35 19.9 °C 17.9 °C 1015.8 hPa Calm     88% 0 mm WeatherDisplay:10.37 W/m2 OVC
04:40 19.9 °C 17.9 °C 1015.5 hPa Calm     88% 0 mm WeatherDisplay:10.37 W/m2 OVC
04:45 19.8 °C 17.8 °C 1015.5 hPa Calm     88% 0 mm WeatherDisplay:10.37 W/m2 OVC
04:50 19.8 °C 17.8 °C 1015.5 hPa Calm     88% 0 mm WeatherDisplay:10.37 W/m2 OVC
04:55 19.7 °C 17.7 °C 1015.5 hPa Calm     88% 0 mm WeatherDisplay:10.37 W/m2 OVC
05:00 19.7 °C 17.7 °C 1015.5 hPa Calm     88% 0 mm WeatherDisplay:10.37 W/m2 OVC
05:10 19.6 °C 17.7 °C 1015.5 hPa Calm     89% 0 mm WeatherDisplay:10.37 W/m2 OVC
05:15 19.6 °C 17.7 °C 1015.8 hPa Calm     89% 0 mm WeatherDisplay:10.37 W/m2 OVC
05:20 19.5 °C 17.6 °C 1015.5 hPa Calm     89% 0 mm WeatherDisplay:10.37 W/m2 CLR
05:25 19.5 °C 17.6 °C 1015.8 hPa Calm     89% 0 mm WeatherDisplay:10.37 W/m2 CLR
05:30 19.4 °C 17.6 °C 1015.8 hPa Calm     89% 0 mm WeatherDisplay:10.37 W/m2 CLR
05:35 19.4 °C 17.6 °C 1015.8 hPa Calm     89% 0 mm WeatherDisplay:10.37 W/m2 CLR
05:40 19.3 °C 17.5 °C 1015.8 hPa Calm     89% 0 mm WeatherDisplay:10.37 W/m2 CLR
05:45 19.3 °C 17.4 °C 1015.8 hPa Calm     89% 0 mm WeatherDisplay:10.37 W/m2 CLR
05:50 19.3 °C 17.4 °C 1015.8 hPa Calm     89% 0 mm WeatherDisplay:10.37 W/m2 CLR
05:55 19.2 °C 17.6 °C 1015.8 hPa Calm     90% 0 mm WeatherDisplay:10.37 W/m2 CLR
06:05 19.2 °C 17.5 °C 1015.5 hPa Calm     90% 0 mm WeatherDisplay:10.37 W/m2 CLR
06:10 19.1 °C 17.4 °C 1015.5 hPa Calm     90% 0 mm WeatherDisplay:10.37 W/m2 CLR
06:15 19.1 °C 17.4 °C 1015.5 hPa Calm     90% 0 mm WeatherDisplay:10.37 W/m2 CLR
06:20 19.1 °C 17.4 °C 1015.5 hPa Calm     90% 0 mm WeatherDisplay:10.37 W/m2 FEW
06:25 19.1 °C 17.4 °C 1015.5 hPa Calm     90% 0 mm WeatherDisplay:10.37 W/m2 FEW
06:30 19 °C 17.3 °C 1015.5 hPa Calm     90% 0 mm WeatherDisplay:10.37 W/m2 FEW
06:35 19.1 °C 17.4 °C 1015.5 hPa Calm     90% 0 mm WeatherDisplay:10.37 W/m2 FEW
06:40 19.1 °C 17.4 °C 1015.5 hPa Calm     90% 0 mm WeatherDisplay:10.37 W/m2 FEW
06:45 19.1 °C 17.6 °C 1015.5 hPa Calm     91% 0 mm WeatherDisplay:10.37 W/m2 FEW
06:50 19.1 °C 17.6 °C 1015.5 hPa Calm     91% 0 mm WeatherDisplay:10.37 W/m2 FEW
06:55 19.1 °C 17.6 °C 1015.5 hPa Calm     91% 0 mm WeatherDisplay:10.37 W/m2 FEW
07:00 19.1 °C 17.6 °C 1015.5 hPa Calm     91% 0 mm WeatherDisplay:10.37 W/m2 FEW
07:05 19 °C 17.5 °C 1015.5 hPa Calm     91% 0 mm WeatherDisplay:10.37 W/m2 FEW
07:10 19 °C 17.5 °C 1015.5 hPa Calm     91% 0 mm WeatherDisplay:10.37 W/m2 FEW
07:15 19 °C 17.5 °C 1015.5 hPa Calm     91% 0 mm WeatherDisplay:10.37 W/m2 FEW
07:20 18.9 °C 17.4 °C 1015.8 hPa Calm     91% 0 mm WeatherDisplay:10.37 W/m2 FEW
07:25 18.9 °C 17.4 °C 1015.8 hPa Calm     91% 0 mm WeatherDisplay:10.37 W/m2 FEW
07:30 18.8 °C 17.3 °C 1015.8 hPa Calm     91% 0 mm WeatherDisplay:10.37 W/m2 FEW
07:35 18.8 °C 17.3 °C 1015.8 hPa Calm     91% 0 mm WeatherDisplay:10.37 W/m2 FEW
07:40 18.7 °C 17.2 °C 1015.8 hPa Calm     91% 0 mm WeatherDisplay:10.37 W/m2 FEW
07:45 18.7 °C 17.2 °C 1015.8 hPa Calm     91% 0 mm WeatherDisplay:10.37 W/m2 FEW
07:50 18.7 °C 17.2 °C 1015.8 hPa Calm     91% 0 mm WeatherDisplay:10.37 W/m2 FEW
07:55 18.8 °C 17.3 °C 1015.8 hPa Calm     91% 0 mm WeatherDisplay:10.37 W/m2 FEW
08:00 18.8 °C 17.3 °C 1015.8 hPa Calm     91% 0 mm WeatherDisplay:10.37 W/m2 FEW
08:05 19.1 °C 17.7 °C 1015.8 hPa Calm     92% 0 mm WeatherDisplay:10.37 W/m2 FEW
08:10 19.2 °C 17.9 °C 1015.8 hPa Calm     92% 0 mm WeatherDisplay:10.37 W/m2 FEW
08:15 19.3 °C 17.8 °C 1015.8 hPa Calm     91% 0 mm WeatherDisplay:10.37 W/m2 FEW
08:20 19.5 °C 18 °C 1015.8 hPa Calm     91% 0 mm WeatherDisplay:10.37 W/m2 SCT
08:25 19.8 °C 18.3 °C 1015.8 hPa Calm     91% 0 mm WeatherDisplay:10.37 W/m2 SCT
08:30 20 °C 18.5 °C 1015.8 hPa Calm     91% 0 mm WeatherDisplay:10.37 W/m2 SCT
08:40 20.3 °C 18.6 °C 1015.8 hPa Calm     90% 0 mm WeatherDisplay:10.37 W/m2 SCT
08:45 20.4 °C 18.7 °C 1015.8 hPa Calm     90% 0 mm WeatherDisplay:10.37 W/m2 SCT
08:50 20.6 °C 18.9 °C 1015.8 hPa Calm     90% 0 mm WeatherDisplay:10.37 W/m2 SCT
08:55 20.8 °C 18.9 °C 1015.8 hPa Calm     89% 0 mm WeatherDisplay:10.37 W/m2 SCT
09:00 20.9 °C 19 °C 1015.8 hPa Calm     89% 0 mm WeatherDisplay:10.37 W/m2 SCT
09:05 21.1 °C 19.2 °C 1015.5 hPa Calm     89% 0 mm WeatherDisplay:10.37 W/m2 SCT
09:10 21.3 °C 19.2 °C 1015.5 hPa Calm     88% 0 mm WeatherDisplay:10.37 W/m2 SCT
09:15 21.4 °C 19.4 °C 1015.5 hPa Calm     88% 0 mm WeatherDisplay:10.37 W/m2 SCT
09:20 21.6 °C 19.4 °C 1015.8 hPa Calm     87% 0 mm WeatherDisplay:10.37 W/m2 SCT
09:25 21.8 °C 19.4 °C 1015.8 hPa Calm     86% 0 mm WeatherDisplay:10.37 W/m2 SCT
09:30 22.1 °C 19.4 °C 1015.8 hPa Calm     85% 0 mm WeatherDisplay:10.37 W/m2 SCT
09:35 22.3 °C 19.4 °C 1015.8 hPa Calm     84% 0 mm WeatherDisplay:10.37 W/m2 SCT
09:40 22.7 °C 19.6 °C 1015.8 hPa Calm     83% 0 mm WeatherDisplay:10.37 W/m2 SCT
09:45 23.1 °C 19.8 °C 1015.8 hPa Calm     82% 0 mm WeatherDisplay:10.37 W/m2 SCT
09:50 23.3 °C 19.9 °C 1015.8 hPa Calm     81% 0 mm WeatherDisplay:10.37 W/m2 SCT
09:55 23.6 °C 19.7 °C 1015.8 hPa Calm     79% 0 mm WeatherDisplay:10.37 W/m2 SCT
10:00 23.8 °C 19.8 °C 1015.8 hPa Calm     78% 0 mm WeatherDisplay:10.37 W/m2 SCT
10:10 24.3 °C 20 °C 1015.8 hPa Calm     77% 0 mm WeatherDisplay:10.37 W/m2 SCT
10:15 24.5 °C 19.8 °C 1015.8 hPa Calm     75% 0 mm WeatherDisplay:10.37 W/m2 SCT
10:20 24.7 °C 19.5 °C 1015.8 hPa Calm     73% 0 mm WeatherDisplay:10.37 W/m2 SCT
10:25 24.8 °C 19.4 °C 1015.8 hPa Calm   1.6 km/h 72% 0 mm WeatherDisplay:10.37 W/m2 SCT
10:30 25 °C 19.6 °C 1015.8 hPa WNW 1.6 km/h 3.2 km/h 72% 0 mm WeatherDisplay:10.37 W/m2 SCT
10:35 25.2 °C 19.3 °C 1015.8 hPa Calm   3.2 km/h 70% 0 mm WeatherDisplay:10.37 W/m2 SCT
10:40 25.4 °C 19.7 °C 1015.8 hPa Calm   1.6 km/h 71% 0 mm WeatherDisplay:10.37 W/m2 SCT
10:45 25.6 °C 19.5 °C 1015.5 hPa Calm   3.2 km/h 69% 0 mm WeatherDisplay:10.37 W/m2 SCT
10:50 25.8 °C 19.5 °C 1015.8 hPa Calm     68% 0 mm WeatherDisplay:10.37 W/m2 SCT
10:55 26.1 °C 19.9 °C 1015.8 hPa Calm     69% 0 mm WeatherDisplay:10.37 W/m2 SCT
11:00 26.2 °C 19.8 °C 1015.5 hPa Calm   1.6 km/h 68% 0 mm WeatherDisplay:10.37 W/m2 SCT
11:10 26.5 °C 19.9 °C 1015.5 hPa Calm   1.6 km/h 67% 0 mm WeatherDisplay:10.37 W/m2 SCT
11:15 26.7 °C 20.1 °C 1015.5 hPa Calm   1.6 km/h 67% 0 mm WeatherDisplay:10.37 W/m2 SCT
11:20 26.9 °C 19.6 °C 1015.5 hPa Calm   3.2 km/h 64% 0 mm WeatherDisplay:10.37 W/m2 CLR
11:25 26.9 °C 19.8 °C 1015.5 hPa Calm   3.2 km/h 65% 0 mm WeatherDisplay:10.37 W/m2 CLR
11:30 26.9 °C 20.1 °C 1015.5 hPa Calm   4.8 km/h 66% 0 mm WeatherDisplay:10.37 W/m2 CLR
11:35 27.1 °C 20.4 °C 1015.1 hPa Calm   3.2 km/h 67% 0 mm WeatherDisplay:10.37 W/m2 CLR
11:40 27.3 °C 20.1 °C 1015.1 hPa Calm   4.8 km/h 65% 0 mm WeatherDisplay:10.37 W/m2 CLR
11:45 27.3 °C 19.9 °C 1015.1 hPa Calm   4.8 km/h 64% 0 mm WeatherDisplay:10.37 W/m2 CLR
11:50 27.2 °C 20.3 °C 1015.1 hPa Calm   8 km/h 66% 0 mm WeatherDisplay:10.37 W/m2 CLR
11:55 27.3 °C 20.2 °C 1015.1 hPa Calm   3.2 km/h 65% 0 mm WeatherDisplay:10.37 W/m2 CLR
12:00 27.2 °C 20.6 °C 1015.1 hPa Calm   3.2 km/h 67% 0 mm WeatherDisplay:10.37 W/m2 CLR
12:05 27.4 °C 20.4 °C 1015.1 hPa Calm   3.2 km/h 66% 0 mm WeatherDisplay:10.37 W/m2 CLR
12:10 27.7 °C 20.8 °C 1015.1 hPa Calm   1.6 km/h 66% 0 mm WeatherDisplay:10.37 W/m2 CLR
12:15 28.1 °C 20.8 °C 1014.8 hPa NW 1.6 km/h 4.8 km/h 65% 0 mm WeatherDisplay:10.37 W/m2 CLR
12:20 28.2 °C 20.7 °C 1014.8 hPa Calm   1.6 km/h 64% 0 mm WeatherDisplay:10.37 W/m2 CLR
12:25 28.4 °C 20.7 °C 1014.8 hPa Calm   3.2 km/h 63% 0 mm WeatherDisplay:10.37 W/m2 CLR
12:30 28.8 °C 21.3 °C 1014.8 hPa Calm   1.6 km/h 64% 0 mm WeatherDisplay:10.37 W/m2 CLR
12:35 29.1 °C 21.1 °C 1014.4 hPa West 3.2 km/h 8 km/h 62% 0 mm WeatherDisplay:10.37 W/m2 CLR
12:40 29 °C 21.2 °C 1014.4 hPa Calm   3.2 km/h 63% 0 mm WeatherDisplay:10.37 W/m2 CLR
12:45 28.9 °C 20.9 °C 1014.4 hPa WSW 1.6 km/h 4.8 km/h 62% 0 mm WeatherDisplay:10.37 W/m2 CLR
12:55 28.3 °C 20.8 °C 1014.1 hPa Calm   3.2 km/h 64% 0 mm WeatherDisplay:10.37 W/m2 CLR
13:00 28.2 °C 20.4 °C 1014.1 hPa Calm   4.8 km/h 63% 0 mm WeatherDisplay:10.37 W/m2 CLR
13:05 28.1 °C 20.8 °C 1014.1 hPa Calm     65% 0 mm WeatherDisplay:10.37 W/m2 CLR
13:10 27.7 °C 20.6 °C 1014.1 hPa Calm   3.2 km/h 65% 0 mm WeatherDisplay:10.37 W/m2 CLR
13:15 27.4 °C 20.8 °C 1014.1 hPa Calm   3.2 km/h 67% 0 mm WeatherDisplay:10.37 W/m2 CLR
13:20 27.5 °C 20.6 °C 1014.1 hPa WSW 1.6 km/h 3.2 km/h 66% 0 mm WeatherDisplay:10.37 W/m2 CLR
13:25 27.9 °C 20.5 °C 1013.8 hPa West 1.6 km/h 4.8 km/h 64% 0 mm WeatherDisplay:10.37 W/m2 CLR
13:30 28.6 °C 21.1 °C 1013.8 hPa Calm   3.2 km/h 64% 0 mm WeatherDisplay:10.37 W/m2 CLR
13:35 29.2 °C 20.4 °C 1013.8 hPa Calm   8 km/h 59% 0 mm WeatherDisplay:10.37 W/m2 CLR
13:45 29.7 °C 20.2 °C 1013.4 hPa NW 1.6 km/h 3.2 km/h 57% 0 mm WeatherDisplay:10.37 W/m2 CLR
13:50 29.9 °C 20.8 °C 1013.8 hPa Calm   1.6 km/h 58% 0 mm WeatherDisplay:10.37 W/m2 CLR
13:55 30.2 °C 20.1 °C 1013.4 hPa Calm   3.2 km/h 55% 0 mm WeatherDisplay:10.37 W/m2 CLR
14:00 30.3 °C 20.3 °C 1013.4 hPa Calm   4.8 km/h 55% 0 mm WeatherDisplay:10.37 W/m2 CLR
14:05 30.4 °C 20.6 °C 1013.4 hPa Calm   1.6 km/h 56% 0 mm WeatherDisplay:10.37 W/m2 CLR
14:10 30.6 °C 21.4 °C 1013.4 hPa WNW 1.6 km/h 3.2 km/h 58% 0 mm WeatherDisplay:10.37 W/m2 CLR
14:15 30.5 °C 20.4 °C 1013.1 hPa Calm   1.6 km/h 55% 0 mm WeatherDisplay:10.37 W/m2 CLR
14:20 30.1 °C 21.2 °C 1013.1 hPa Calm   3.2 km/h 59% 0 mm WeatherDisplay:10.37 W/m2 CLR
14:25 29.7 °C 20.8 °C 1013.1 hPa Calm   3.2 km/h 59% 0 mm WeatherDisplay:10.37 W/m2 CLR
14:30 29.6 °C 20.9 °C 1013.1 hPa Calm   3.2 km/h 60% 0 mm WeatherDisplay:10.37 W/m2 CLR
14:35 29.8 °C 21.5 °C 1012.8 hPa Calm   1.6 km/h 61% 0 mm WeatherDisplay:10.37 W/m2 CLR
14:40 29.8 °C 20.7 °C 1012.8 hPa Calm   1.6 km/h 58% 0 mm WeatherDisplay:10.37 W/m2 CLR
14:45 29.9 °C 21 °C 1012.4 hPa Calm   1.6 km/h 59% 0 mm WeatherDisplay:10.37 W/m2 CLR
14:50 29.9 °C 20.7 °C 1012.4 hPa Calm   1.6 km/h 58% 0 mm WeatherDisplay:10.37 W/m2 CLR
14:55 29.8 °C 19.8 °C 1012.4 hPa Calm   3.2 km/h 55% 0 mm WeatherDisplay:10.37 W/m2 CLR
15:00 29.7 °C 20.5 °C 1012.1 hPa Calm     58% 0 mm WeatherDisplay:10.37 W/m2 CLR
15:05 29.4 °C 20.6 °C 1012.1 hPa Calm   1.6 km/h 59% 0 mm WeatherDisplay:10.37 W/m2 CLR
15:10 29.5 °C 20.3 °C 1012.1 hPa Calm   4.8 km/h 58% 0 mm WeatherDisplay:10.37 W/m2 CLR
15:15 29.5 °C 20.4 °C 1012.1 hPa Calm   1.6 km/h 58% 0 mm WeatherDisplay:10.37 W/m2 CLR
15:25 29.3 °C 20.7 °C 1011.7 hPa Calm   1.6 km/h 60% 0 mm WeatherDisplay:10.37 W/m2 BKN
15:30 29.3 °C 20.5 °C 1011.7 hPa Calm   1.6 km/h 59% 0 mm WeatherDisplay:10.37 W/m2 BKN
15:35 29.3 °C 20.8 °C 1011.7 hPa Calm   1.6 km/h 60% 0 mm WeatherDisplay:10.37 W/m2 BKN
15:40 29.4 °C 21.3 °C 1011.7 hPa Calm   1.6 km/h 62% 0 mm WeatherDisplay:10.37 W/m2 BKN
15:45 29.4 °C 20.9 °C 1011.7 hPa Calm   1.6 km/h 60% 0 mm WeatherDisplay:10.37 W/m2 BKN
15:50 29.4 °C 20.5 °C 1011.7 hPa Calm   3.2 km/h 59% 0 mm WeatherDisplay:10.37 W/m2 BKN
15:55 29.3 °C 20.7 °C 1011.7 hPa Calm   1.6 km/h 60% 0 mm WeatherDisplay:10.37 W/m2 BKN
16:00 29.3 °C 20.8 °C 1011.7 hPa Calm   3.2 km/h 60% 0 mm WeatherDisplay:10.37 W/m2 BKN
16:05 29.3 °C 20.2 °C 1011.7 hPa Calm   3.2 km/h 58% 0 mm WeatherDisplay:10.37 W/m2 BKN
16:10 29.1 °C 19.9 °C 1011.7 hPa Calm   1.6 km/h 58% 0 mm WeatherDisplay:10.37 W/m2 BKN
16:15 29 °C 20.4 °C 1011.4 hPa Calm   1.6 km/h 60% 0 mm WeatherDisplay:10.37 W/m2 BKN
16:20 29.1 °C 20 °C 1011.4 hPa Calm   1.6 km/h 58% 0 mm WeatherDisplay:10.37 W/m2 BKN
16:25 29.1 °C 20.8 °C 1011.4 hPa Calm   1.6 km/h 61% 0 mm WeatherDisplay:10.37 W/m2 BKN
16:30 29 °C 21 °C 1011.1 hPa Calm     62% 0 mm WeatherDisplay:10.37 W/m2 BKN
16:35 29 °C 21 °C 1011.1 hPa Calm   3.2 km/h 62% 0 mm WeatherDisplay:10.37 W/m2 BKN
16:40 29.1 °C 21.3 °C 1011.1 hPa Calm   1.6 km/h 63% 0 mm WeatherDisplay:10.37 W/m2 BKN
16:45 29 °C 21.2 °C 1010.7 hPa Calm   1.6 km/h 63% 0 mm WeatherDisplay:10.37 W/m2 BKN
16:50 28.9 °C 21.1 °C 1010.7 hPa Calm   1.6 km/h 63% 0 mm WeatherDisplay:10.37 W/m2 BKN
16:55 28.8 °C 21.3 °C 1010.7 hPa NNW 1.6 km/h 4.8 km/h 64% 0 mm WeatherDisplay:10.37 W/m2 BKN
17:00 28.9 °C 21.4 °C 1010.7 hPa Calm   3.2 km/h 64% 0 mm WeatherDisplay:10.37 W/m2 BKN
17:05 28.9 °C 20.9 °C 1010.4 hPa Calm   4.8 km/h 62% 0 mm WeatherDisplay:10.37 W/m2 BKN
17:10 28.9 °C 21.4 °C 1010.4 hPa Calm   4.8 km/h 64% 0 mm WeatherDisplay:10.37 W/m2 BKN
17:15 28.9 °C 21.2 °C 1010.4 hPa Calm   3.2 km/h 63% 0 mm WeatherDisplay:10.37 W/m2 BKN
17:20 28.9 °C 21.4 °C 1010.4 hPa Calm   1.6 km/h 64% 0 mm WeatherDisplay:10.37 W/m2 BKN
17:25 28.8 °C 21.3 °C 1010.4 hPa Calm   3.2 km/h 64% 0 mm WeatherDisplay:10.37 W/m2 BKN
17:30 28.6 °C 20.8 °C 1010.7 hPa Calm   3.2 km/h 63% 0 mm WeatherDisplay:10.37 W/m2 BKN
17:40 28.2 °C 21 °C 1010.7 hPa Calm   1.6 km/h 65% 0 mm WeatherDisplay:10.37 W/m2 BKN
17:45 28.1 °C 21.1 °C 1010.7 hPa Calm   1.6 km/h 66% 0 mm WeatherDisplay:10.37 W/m2 BKN
17:50 27.8 °C 21.2 °C 1010.4 hPa Calm   3.2 km/h 67% 0 mm WeatherDisplay:10.37 W/m2 BKN
17:55 27.7 °C 21.1 °C 1010.7 hPa Calm   1.6 km/h 67% 0 mm WeatherDisplay:10.37 W/m2 BKN
18:00 27.6 °C 21.2 °C 1010.7 hPa Calm   1.6 km/h 68% 0 mm WeatherDisplay:10.37 W/m2 BKN
18:05 27.4 °C 21 °C 1010.7 hPa Calm   1.6 km/h 68% 0 mm WeatherDisplay:10.37 W/m2 BKN
18:10 27.2 °C 20.6 °C 1011.1 hPa Calm   4.8 km/h 67% 0 mm WeatherDisplay:10.37 W/m2 BKN
18:20 27 °C 20.6 °C 1011.1 hPa Calm   1.6 km/h 68% 0 mm WeatherDisplay:10.37 W/m2 BKN
18:25 26.9 °C 20.6 °C 1010.7 hPa Calm   1.6 km/h 68% 0 mm WeatherDisplay:10.37 W/m2 BKN
18:30 26.8 °C 20.4 °C 1010.7 hPa Calm   8 km/h 68% 0 mm WeatherDisplay:10.37 W/m2 BKN
18:35 26.8 °C 20.9 °C 1010.7 hPa Calm   3.2 km/h 70% 0 mm WeatherDisplay:10.37 W/m2 BKN
18:40 26.7 °C 20.8 °C 1010.7 hPa Calm   1.6 km/h 70% 0 mm WeatherDisplay:10.37 W/m2 BKN
18:45 26.6 °C 20.9 °C 1011.1 hPa Calm   1.6 km/h 71% 0 mm WeatherDisplay:10.37 W/m2 BKN
18:50 26.4 °C 20.6 °C 1011.1 hPa Calm   4.8 km/h 70% 0 mm WeatherDisplay:10.37 W/m2 BKN
18:55 26.4 °C 20.7 °C 1011.4 hPa Calm     71% 0 mm WeatherDisplay:10.37 W/m2 BKN
19:00 26.3 °C 20.6 °C 1011.4 hPa Calm     71% 0 mm WeatherDisplay:10.37 W/m2 BKN
19:10 26.2 °C 20.3 °C 1012.1 hPa WNW 3.2 km/h 8 km/h 70% 0 mm WeatherDisplay:10.37 W/m2 BKN
19:15 24.8 °C 20.1 °C 1012.8 hPa Calm   8 km/h 75% 3.05 mm WeatherDisplay:10.37 W/m2 RA
19:20 23.1 °C 19.5 °C 1012.8 hPa Calm   3.2 km/h 80% 1.78 mm WeatherDisplay:10.37 W/m2 OVC
19:25 22.1 °C 19 °C 1012.8 hPa Calm   1.6 km/h 83% 2.29 mm WeatherDisplay:10.37 W/m2 RA
19:30 21.4 °C 18.8 °C 1012.8 hPa Calm     85% 1.78 mm WeatherDisplay:10.37 W/m2 RA
19:45 20.4 °C 18.6 °C 1013.4 hPa Calm     89% 1.02 mm WeatherDisplay:10.37 W/m2 RA
19:50 20.3 °C 18.6 °C 1013.1 hPa Calm     90% 0.25 mm WeatherDisplay:10.37 W/m2 OVC
19:55 20.2 °C 18.6 °C 1012.8 hPa Calm     90% 0.25 mm WeatherDisplay:10.37 W/m2 OVC
20:00 20.2 °C 18.5 °C 1012.8 hPa Calm     90% 0.25 mm WeatherDisplay:10.37 W/m2 RA
20:10 20.1 °C 18.6 °C 1012.4 hPa Calm     91% 0.25 mm WeatherDisplay:10.37 W/m2 OVC
20:15 20.2 °C 18.8 °C 1012.8 hPa Calm   1.6 km/h 92% 0 mm WeatherDisplay:10.37 W/m2 OVC
20:20 20.1 °C 18.8 °C 1012.4 hPa Calm     92% 0 mm WeatherDisplay:10.37 W/m2 OVC
20:25 20.1 °C 18.7 °C 1012.8 hPa Calm     92% 0.25 mm WeatherDisplay:10.37 W/m2 RA
20:30 20 °C 18.7 °C 1012.8 hPa Calm     92% 0 mm WeatherDisplay:10.37 W/m2 OVC
20:35 20 °C 18.7 °C 1013.1 hPa Calm     92% 0 mm WeatherDisplay:10.37 W/m2 OVC
20:40 19.9 °C 18.6 °C 1013.4 hPa Calm     92% 0 mm WeatherDisplay:10.37 W/m2 OVC
20:45 20 °C 18.7 °C 1013.8 hPa Calm     92% 0.25 mm WeatherDisplay:10.37 W/m2 OVC
20:50 20 °C 18.7 °C 1013.8 hPa Calm     92% 0.76 mm WeatherDisplay:10.37 W/m2 RA
21:05 20 °C 18.8 °C 1013.4 hPa Calm     93% 0.51 mm WeatherDisplay:10.37 W/m2 RA
21:10 20 °C 18.8 °C 1013.4 hPa Calm     93% 0.25 mm WeatherDisplay:10.37 W/m2 RA
21:15 20 °C 18.8 °C 1013.4 hPa Calm     93% 0 mm WeatherDisplay:10.37 W/m2 OVC
21:20 20 °C 18.8 °C 1013.4 hPa Calm     93% 0.25 mm WeatherDisplay:10.37 W/m2 OVC
21:30 20 °C 18.8 °C 1013.1 hPa Calm   1.6 km/h 93% 0 mm WeatherDisplay:10.37 W/m2 -RA
21:35 20 °C 18.8 °C 1013.1 hPa Calm     93% 0 mm WeatherDisplay:10.37 W/m2 -RA
21:40 19.9 °C 18.8 °C 1013.1 hPa Calm     93% 0.25 mm WeatherDisplay:10.37 W/m2 -RA
21:45 19.9 °C 18.8 °C 1013.1 hPa Calm     93% 0 mm WeatherDisplay:10.37 W/m2 -RA
21:50 19.9 °C 18.8 °C 1013.1 hPa Calm     93% 0 mm WeatherDisplay:10.37 W/m2 -RA
21:55 19.9 °C 18.8 °C 1013.4 hPa Calm     93% 0 mm WeatherDisplay:10.37 W/m2 -RA
22:00 19.9 °C 18.8 °C 1013.1 hPa Calm     93% 0 mm WeatherDisplay:10.37 W/m2 -RA
22:05 19.9 °C 18.8 °C 1013.4 hPa Calm     93% 0 mm WeatherDisplay:10.37 W/m2 -RA
22:10 19.9 °C 18.8 °C 1013.4 hPa Calm   1.6 km/h 93% 0 mm WeatherDisplay:10.37 W/m2 -RA
22:15 19.9 °C 18.8 °C 1013.8 hPa Calm   1.6 km/h 93% 0 mm WeatherDisplay:10.37 W/m2 -RA
22:20 19.9 °C 18.8 °C 1013.8 hPa Calm     93% 0 mm WeatherDisplay:10.37 W/m2 -RA
22:25 19.9 °C 18.8 °C 1013.4 hPa Calm     93% 0 mm WeatherDisplay:10.37 W/m2 -RA
22:30 19.9 °C 18.7 °C 1013.4 hPa Calm     93% 0 mm WeatherDisplay:10.37 W/m2 -RA
22:40 19.8 °C 18.6 °C 1013.4 hPa Calm     93% 0 mm WeatherDisplay:10.37 W/m2 -RA
22:45 19.8 °C 18.6 °C 1013.1 hPa Calm     93% 0 mm WeatherDisplay:10.37 W/m2 -RA
22:50 19.8 °C 18.6 °C 1013.1 hPa Calm     93% 0 mm WeatherDisplay:10.37 W/m2 OVC
22:55 19.8 °C 18.6 °C 1013.1 hPa Calm     93% 0 mm WeatherDisplay:10.37 W/m2 OVC
23:00 19.8 °C 18.6 °C 1013.1 hPa Calm     93% 0 mm WeatherDisplay:10.37 W/m2 OVC
23:05 19.8 °C 18.6 °C 1013.1 hPa Calm     93% 0 mm WeatherDisplay:10.37 W/m2 OVC
23:10 19.8 °C 18.6 °C 1013.1 hPa Calm     93% 0 mm WeatherDisplay:10.37 W/m2 OVC
23:15 19.8 °C 18.7 °C 1012.8 hPa Calm     93% 0 mm WeatherDisplay:10.37 W/m2 OVC
23:20 19.8 °C 18.6 °C 1012.8 hPa Calm     93% 0 mm WeatherDisplay:10.37 W/m2 SCT
23:30 19.8 °C 18.6 °C 1012.8 hPa Calm     93% 0 mm WeatherDisplay:10.37 W/m2 BKN
23:35 19.7 °C 18.6 °C 1012.8 hPa Calm     93% 0 mm WeatherDisplay:10.37 W/m2 BKN
23:40 19.7 °C 18.6 °C 1013.1 hPa Calm     93% 0 mm WeatherDisplay:10.37 W/m2 BKN
23:45 19.7 °C 18.6 °C 1013.1 hPa Calm     93% 0 mm WeatherDisplay:10.37 W/m2 BKN
23:50 19.7 °C 18.6 °C 1013.4 hPa Calm     93% 0 mm WeatherDisplay:10.37 W/m2 BKN
23:55 19.8 °C 18.8 °C 1013.4 hPa Calm     94% 0 mm WeatherDisplay:10.37 W/m2 BKN
Piedmont Bend
Compliments of Weather Underground - 4 mb